Regional Weather Roundup
Issued by NWS Charleston, SC

Current Version | Previous Version | Graphics & Text | Print | Product List | Glossary On
Versions: 1 2 3 4 5 6 7 8 9 10 11 12 13 14 15 16 17 18 19 20 21 22 23 24 25 26 27 28 29 30 31 32 33 34 35 36 37 38 39 40 41 42 43 44 45 46 47 48 49 50
000 ASUS42 KCHS 241713 RWRCHS REGIONAL WEATHER ROUNDUP NATIONAL WEATHER SERVICE CHARLESTON SC 100 PM EDT WED AUG 24 2016 NOTE: "FAIR" INDICATES FEW OR NO CLOUDS BELOW 12,000 FEET WITH NO SIGNIFICANT WEATHER AND/OR OBSTRUCTIONS TO VISIBILITY. NOT ALL STATIONS ARE QUALITY CONTROLLED. USE DATA WITH CAUTION... ESPECIALLY DEWPOINT OBSERVATIONS. SCZ027-030-031-034>040-042>050-241800- ...SOUTHEAST SOUTH CAROLINA... CITY SKY/WX TMP DP RH WIND PRES REMARKS N CHARLESTON MOSUNNY 88 64 44 NE14 30.23F WATERFRONT PRK N/A 84 72 67 E13 30.22F MOUNT PLEASANT FAIR 82 70 65 CALM 30.24F JOHNS ISLAND CLOUDY 84 70 61 E14G20 30.24F PINOPOLIS N/A 82 68 61 E7 30.19F MONCKS CORNER PTSUNNY 86 61 42 NE10 30.24F SUMMERVILLE FAIR 86 68 54 NE6 30.25F BEAUFORT MCAS MOSUNNY 90 67 46 VRB7 30.23F HX 93 BEAUFORT ARPT FAIR 86 68 54 NE12G18 30.23F HILTON HEAD IS MOSUNNY 91 72 52 NE12 30.24F HX 98 WALTERBORO SUNNY 90 63 40 E8G17 30.25F HX 90 ALLENDALE FAIR 90 63 40 VRB6 30.24S HX 90 ...SOUTHERN MIDLANDS AND PEE DEE... CITY SKY/WX TMP DP RH WIND PRES REMARKS GEORGETOWN PTSUNNY 81 63 54 NE7 30.26F KINGSTREE FAIR 88 61 40 NE3 30.25F ORANGEBURG MOSUNNY 87 64 46 E8 30.25F BARNWELL NOT AVBL AIKEN PTSUNNY 84 64 51 E8 30.30F MANNING FAIR 86 64 48 E6 30.25F COLUMBIA MOSUNNY 88 65 46 VRB6 30.25F HX 90 SUMTER MOSUNNY 87 64 46 N5 30.24F FLORENCE SUNNY 87 61 41 E6 30.27F MYRTLE BEACH MOSUNNY 88 59 37 N12 30.27F N MYRTLE BEACH MOSUNNY 86 62 44 VRB7G17 30.25F $$ GAZ063-065-086>088-099>101-113>116-118-119-134>141-150-241800- ...SOUTHEAST GEORGIA... CITY SKY/WX TMP DP RH WIND PRES REMARKS SAVANNAH ARPT PTSUNNY 91 66 43 NE13G20 30.23F HX 93 HUNTER AAF MOSUNNY 88 76 66 E10 30.20F HX 98 FORT STEWART PTSUNNY 88 69 53 NE6 30.19F HX 92 STATESBORO MOSUNNY 90 69 50 SE7 30.24F HX 94 SYLVANIA SUNNY N/A N/A N/A E8 30.26F CLAXTON FAIR 91 68 48 NE8 30.23F HX 94 ...CSRA...CENTRAL AND FAR SOUTHEAST GEORGIA... CITY SKY/WX TMP DP RH WIND PRES REMARKS THOMSON CLOUDY 86 73 66 MISG 30.31F HX 93 AUGUSTA-BUSH MOSUNNY 89 67 47 MISG 30.24F HX 92 AUGUSTA-DANIEL PTSUNNY 88 66 48 SE9 30.27F HX 90 SWAINSBORO CLOUDY 88 64 45 E6 30.25F VIDALIA PTSUNNY 90 72 55 E8 30.23F HX 96 EASTMAN PTSUNNY 89 55 31 E5 30.26F HAZLEHURST FAIR 91 68 47 E6 30.22F HX 94 ALMA SUNNY 89 70 53 E7 30.22F HX 94 WAYCROSS N/A 93 73 52 E12G17 30.21F HX 101 JESUP PTSUNNY 90 75 62 NE7 30.21F HX 100 BAXLEY FAIR 88 75 66 E5 30.22F HX 97 BRUNSWICK SUNNY 90 72 55 NE14 30.21F HX 96 SAINT SIMONS SUNNY 89 68 49 NE14G21 30.21F HX 93 $$ SCZ027-028-034-036>038-045-046-048>050-GAZ119-141-241800- ...LAKE AND SUPPLEMENTAL COASTAL OBSERVATIONS... STATION/POSITION TIME TEMP WIND PRES WAVE SWELL AIR SEA DIR/SP/G HT/PER HT/PER/DIR (UTC) (F) (DEG/KT/KT) (MB) (FT/S) (FT/S/D) WINYAH BAY NOT AVBL LAKE MURRAY 1600 82 230/ 4/ 7 1024.7F ACE BASIN NERRS NOT AVBL FORT PULASKI 1600 83 86 50/ 16/ 19 1024.4S SAPELO ISLAND 1600 89 60/ 10 1023.0S $$ ANZ835-935-AMZ111-154-330-350-352-354-370-450-454-472-241800- ...C-MAN AND BUOY OBSERVATIONS... STATION/POSITION TIME TEMP WIND PRES WAVE SWELL AIR SEA DIR/SP/G HT/PER HT/PER/DIR (UTC) (F) (DEG/KT/KT) (MB) (FT/S) (FT/S/D) BUOY 41004 1650 83 84 40/ 17/ 21 1022.9F 4/ 6 2/ 80/ 7 BUOY 41008 1650 83 85 60/ 10/ 12 1022.7F 3/ 5 2/110/ 6 FOLLY BEACH CMAN 1700 83 70/ 16/ 19 1024.2F CAPERS NEARSHORE 1608 82 84 60/ 16/ 21 1024.1F FRIPP NEARSHORE 1608 83 86 70/ 16/ 21 1023.3R STATION/POSITION TIME TEMP WIND PRES WAVE SWELL AIR SEA DIR/SP/G HT/PER HT/PER/DIR (UTC) (F) (DEG/KT/KT) (MB) (FT/S) (FT/S/D) 5E ST. MARYS GA NOT AVBL FRYING PAN BUOY 1600 80 85 20/ 16/ 19 1024.2S BUOY 41025 1650 81 85 100/ 16/ 17 1023.5F 3/ 8 2/ 40/ 8 CAPE LOOKOUT NC 1700 82 10/ 11/ 14 1023.6F BUOY 41002 1650 83 85 50/ 16/ 17 1021.2F 5/11 2/100/11 BUOY 41010 NOT AVBL ST AUGUSTINE FL 1700 83 84 30/ 15/ 17 1023.0F $$

USA.gov is the U.S. government's official web portal to all federal, state and local government web resources and services.